Time,TemperatureF,DewpointF,PressureIn,WindDirection,WindDirectionDegrees,WindSpeedMPH,WindSpeedGustMPH,Humidity,HourlyPrecipIn,Conditions,Clouds,dailyrainin,SoftwareType,DateUTC
2013-02-14 00:00:00,50.4,37.9,30.15,WNW,292,0.0,2.0,62,0.00,,CLR,0.00,VWS V14.01,2013-02-14 08:00:00,
2013-02-14 00:01:00,50.4,37.9,30.15,WNW,292,1.0,2.0,62,0.00,,,0.00,VWS V14.01,2013-02-14 08:01:00,
2013-02-14 00:06:00,50.4,37.5,30.15,WNW,292,0.0,0.0,61,0.00,,FEW002,0.00,VWS V14.01,2013-02-14 08:06:00,
2013-02-14 00:11:00,50.4,37.5,30.15,WNW,292,0.0,0.0,61,0.00,,FEW002,0.00,VWS V14.01,2013-02-14 08:11:00,
2013-02-14 00:15:00,50.4,38.3,30.15,WNW,292,1.0,2.0,63,0.00,,CLR,0.00,VWS V14.01,2013-02-14 08:15:00,
2013-02-14 00:16:00,50.4,38.3,30.15,WNW,292,1.0,2.0,63,0.00,,FEW002,0.00,VWS V14.01,2013-02-14 08:16:00,
2013-02-14 00:21:00,50.2,37.7,30.15,WNW,292,1.0,1.0,62,0.00,,FEW002,0.00,VWS V14.01,2013-02-14 08:21:00,
2013-02-14 00:26:00,50.4,37.5,30.15,WNW,292,0.0,1.0,61,0.00,,FEW002,0.00,VWS V14.01,2013-02-14 08:26:00,
2013-02-14 00:30:00,50.4,37.0,30.15,WNW,292,0.0,1.0,60,0.00,,CLR,0.00,VWS V14.01,2013-02-14 08:30:00,
2013-02-14 00:31:00,50.4,37.5,30.15,WNW,292,0.0,1.0,61,0.00,,FEW002,0.00,VWS V14.01,2013-02-14 08:31:00,
2013-02-14 00:36:00,50.2,36.9,30.15,WNW,292,0.0,0.0,60,0.00,,FEW002,0.00,VWS V14.01,2013-02-14 08:36:00,
2013-02-14 00:41:00,50.2,36.9,30.15,WNW,292,0.0,0.0,60,0.00,,FEW002,0.00,VWS V14.01,2013-02-14 08:41:00,
2013-02-14 00:45:00,50.2,37.3,30.15,WNW,292,0.0,0.0,61,0.00,,CLR,0.00,VWS V14.01,2013-02-14 08:45:00,
2013-02-14 00:46:00,50.2,37.3,30.15,WNW,292,0.0,0.0,61,0.00,,CLR,0.00,VWS V14.01,2013-02-14 08:46:00,
2013-02-14 00:51:00,49.9,37.4,30.15,WNW,292,0.0,1.0,62,0.00,,CLR,0.00,VWS V14.01,2013-02-14 08:51:00,
2013-02-14 00:56:00,49.8,37.7,30.15,WNW,292,0.0,2.0,63,0.00,,CLR,0.00,VWS V14.01,2013-02-14 08:56:00,
2013-02-14 01:00:00,49.5,37.8,30.15,WNW,292,0.0,2.0,64,0.00,,CLR,0.00,VWS V14.01,2013-02-14 09:00:00,
2013-02-14 01:01:00,49.6,37.9,30.15,WNW,292,1.0,2.0,64,0.00,,CLR,0.00,VWS V14.01,2013-02-14 09:01:00,
2013-02-14 01:06:00,49.4,38.1,30.15,WNW,292,0.0,2.0,65,0.00,,CLR,0.00,VWS V14.01,2013-02-14 09:06:00,
2013-02-14 01:11:00,49.1,37.9,30.15,NE,46,1.0,3.0,65,0.00,,CLR,0.00,VWS V14.01,2013-02-14 09:11:00,
2013-02-14 01:15:00,49.2,38.0,30.15,East,83,4.0,4.0,65,0.00,,CLR,0.00,VWS V14.01,2013-02-14 09:15:00,
2013-02-14 01:16:00,49.1,37.9,30.15,ENE,60,3.0,4.0,65,0.00,,CLR,0.00,VWS V14.01,2013-02-14 09:16:00,
2013-02-14 01:21:00,49.2,38.0,30.15,ENE,71,4.0,4.0,65,0.00,,CLR,0.00,VWS V14.01,2013-02-14 09:21:00,
2013-02-14 01:26:00,49.1,38.2,30.15,East,81,2.0,4.0,66,0.00,,CLR,0.00,VWS V14.01,2013-02-14 09:26:00,
2013-02-14 01:30:00,49.1,38.2,30.15,ENE,76,0.0,4.0,66,0.00,,CLR,0.00,VWS V14.01,2013-02-14 09:30:00,
2013-02-14 01:31:00,49.1,38.2,30.15,ENE,76,2.0,4.0,66,0.00,,CLR,0.00,VWS V14.01,2013-02-14 09:31:00,
2013-02-14 01:36:00,48.9,38.4,30.15,ENE,76,1.0,2.0,67,0.00,,CLR,0.00,VWS V14.01,2013-02-14 09:36:00,
2013-02-14 01:41:00,48.6,38.2,30.15,ENE,76,0.0,3.0,67,0.00,,CLR,0.00,VWS V14.01,2013-02-14 09:41:00,
2013-02-14 01:45:00,48.3,38.2,30.15,East,87,0.0,3.0,68,0.00,,CLR,0.00,VWS V14.01,2013-02-14 09:45:00,
2013-02-14 01:46:00,48.5,38.4,30.15,East,87,2.0,3.0,68,0.00,,CLR,0.00,VWS V14.01,2013-02-14 09:46:00,
2013-02-14 01:51:00,48.2,38.5,30.16,East,87,0.0,2.0,69,0.00,,CLR,0.00,VWS V14.01,2013-02-14 09:51:00,
2013-02-14 01:56:00,48.0,38.3,30.16,East,89,0.0,3.0,69,0.00,,CLR,0.00,VWS V14.01,2013-02-14 09:56:00,
2013-02-14 02:00:00,47.7,38.8,30.15,East,89,1.0,3.0,71,0.00,,CLR,0.00,VWS V14.01,2013-02-14 10:00:00,
2013-02-14 02:01:00,47.7,38.4,30.16,East,89,1.0,3.0,70,0.00,,CLR,0.00,VWS V14.01,2013-02-14 10:01:00,
2013-02-14 02:06:00,47.4,38.5,30.16,East,89,2.0,2.0,71,0.00,,CLR,0.00,VWS V14.01,2013-02-14 10:06:00,
2013-02-14 02:11:00,47.1,38.5,30.16,ENE,78,0.0,3.0,72,0.00,,CLR,0.00,VWS V14.01,2013-02-14 10:11:00,
2013-02-14 02:15:00,47.0,38.8,30.16,ENE,78,0.0,3.0,73,0.00,,CLR,0.00,VWS V14.01,2013-02-14 10:15:00,
2013-02-14 02:16:00,47.1,38.9,30.16,ENE,78,0.0,3.0,73,0.00,,CLR,0.00,VWS V14.01,2013-02-14 10:16:00,
2013-02-14 02:21:00,47.0,38.8,30.16,ENE,78,1.0,1.0,73,0.00,,CLR,0.00,VWS V14.01,2013-02-14 10:21:00,
2013-02-14 02:26:00,46.8,38.3,30.16,ENE,78,0.0,1.0,72,0.00,,CLR,0.00,VWS V14.01,2013-02-14 10:26:00,
2013-02-14 02:30:00,46.8,38.3,30.15,ENE,78,0.0,3.0,72,0.00,,CLR,0.00,VWS V14.01,2013-02-14 10:30:00,
2013-02-14 02:31:00,46.8,38.3,30.16,ENE,78,0.0,3.0,72,0.00,,CLR,0.00,VWS V14.01,2013-02-14 10:31:00,
2013-02-14 02:36:00,46.7,38.5,30.15,ENE,78,0.0,1.0,73,0.00,,CLR,0.00,VWS V14.01,2013-02-14 10:36:00,
2013-02-14 02:41:00,46.7,38.9,30.15,ENE,78,0.0,2.0,74,0.00,,CLR,0.00,VWS V14.01,2013-02-14 10:41:00,
2013-02-14 02:45:00,46.5,39.0,30.15,ENE,78,1.0,3.0,75,0.00,,CLR,0.00,VWS V14.01,2013-02-14 10:45:00,
2013-02-14 02:46:00,46.5,39.0,30.15,ENE,78,0.0,3.0,75,0.00,,CLR,0.00,VWS V14.01,2013-02-14 10:46:00,
2013-02-14 02:51:00,46.5,39.0,30.15,ENE,78,0.0,3.0,75,0.00,,CLR,0.00,VWS V14.01,2013-02-14 10:51:00,
2013-02-14 02:56:00,46.5,39.4,30.15,ENE,78,2.0,3.0,76,0.00,,CLR,0.00,VWS V14.01,2013-02-14 10:56:00,
2013-02-14 03:00:00,46.5,39.3,30.14,ENE,78,0.0,3.0,76,0.00,,CLR,0.00,VWS V14.01,2013-02-14 11:00:00,
2013-02-14 03:01:00,46.5,39.4,30.15,ENE,78,0.0,3.0,76,0.00,,CLR,0.00,VWS V14.01,2013-02-14 11:01:00,
2013-02-14 03:06:00,46.5,39.4,30.14,ENE,78,0.0,0.0,76,0.00,,BKN002,0.00,VWS V14.01,2013-02-14 11:06:00,
2013-02-14 03:11:00,46.7,39.9,30.14,ENE,78,0.0,1.0,77,0.00,,BKN002,0.00,VWS V14.01,2013-02-14 11:11:00,
2013-02-14 03:15:00,46.8,40.0,30.14,ENE,78,0.0,1.0,77,0.00,,CLR,0.00,VWS V14.01,2013-02-14 11:15:00,
2013-02-14 03:16:00,46.8,40.0,30.14,ENE,78,0.0,1.0,77,0.00,,BKN002,0.00,VWS V14.01,2013-02-14 11:16:00,
2013-02-14 03:21:00,46.8,40.3,30.14,East,80,1.0,3.0,78,0.00,,BKN002,0.00,VWS V14.01,2013-02-14 11:21:00,
2013-02-14 03:26:00,46.8,40.6,30.14,East,80,2.0,3.0,79,0.00,,BKN002,0.00,VWS V14.01,2013-02-14 11:26:00,
2013-02-14 03:30:00,47.0,40.5,30.14,East,80,0.0,3.0,78,0.00,,CLR,0.00,VWS V14.01,2013-02-14 11:30:00,
2013-02-14 03:31:00,46.8,40.3,30.14,East,80,0.0,3.0,78,0.00,,BKN002,0.00,VWS V14.01,2013-02-14 11:31:00,
2013-02-14 03:36:00,47.0,40.8,30.14,East,80,0.0,1.0,79,0.00,,BKN002,0.00,VWS V14.01,2013-02-14 11:36:00,
2013-02-14 03:41:00,47.1,40.9,30.14,East,80,0.0,2.0,79,0.00,,BKN002,0.00,VWS V14.01,2013-02-14 11:41:00,
2013-02-14 03:45:00,47.4,41.2,30.14,East,80,0.0,2.0,79,0.00,,CLR,0.00,VWS V14.01,2013-02-14 11:45:00,
2013-02-14 03:46:00,47.4,41.2,30.14,East,80,0.0,2.0,79,0.00,,SCT002,0.00,VWS V14.01,2013-02-14 11:46:00,
2013-02-14 03:51:00,47.4,41.2,30.14,East,80,1.0,1.0,79,0.00,,SCT002,0.00,VWS V14.01,2013-02-14 11:51:00,
2013-02-14 03:56:00,47.6,41.1,30.14,East,80,1.0,2.0,78,0.00,,SCT002,0.00,VWS V14.01,2013-02-14 11:56:00,
2013-02-14 04:00:00,47.7,40.8,30.14,East,81,0.0,3.0,77,0.00,,CLR,0.00,VWS V14.01,2013-02-14 12:00:00,
2013-02-14 04:01:00,47.7,41.2,30.14,East,81,1.0,3.0,78,0.00,,SCT002,0.00,VWS V14.01,2013-02-14 12:01:00,
2013-02-14 04:06:00,47.7,40.8,30.14,East,81,0.0,0.0,77,0.00,,SCT002,0.00,VWS V14.01,2013-02-14 12:06:00,
2013-02-14 04:11:00,47.9,41.0,30.14,East,81,1.0,2.0,77,0.00,,SCT002,0.00,VWS V14.01,2013-02-14 12:11:00,
2013-02-14 04:15:00,48.0,40.1,30.14,East,81,0.0,3.0,74,0.00,,CLR,0.00,VWS V14.01,2013-02-14 12:15:00,
2013-02-14 04:16:00,48.0,40.1,30.14,East,81,2.0,3.0,74,0.00,,SCT002,0.00,VWS V14.01,2013-02-14 12:16:00,
2013-02-14 04:21:00,48.2,40.0,30.14,East,81,0.0,2.0,73,0.00,,SCT002,0.00,VWS V14.01,2013-02-14 12:21:00,
2013-02-14 04:26:00,48.5,39.5,30.14,East,81,1.0,3.0,71,0.00,,SCT002,0.00,VWS V14.01,2013-02-14 12:26:00,
2013-02-14 04:30:00,48.8,39.1,30.14,East,81,0.0,3.0,69,0.00,,CLR,0.00,VWS V14.01,2013-02-14 12:30:00,
2013-02-14 04:31:00,48.8,39.5,30.14,East,81,0.0,3.0,70,0.00,,SCT002,0.00,VWS V14.01,2013-02-14 12:31:00,
2013-02-14 04:36:00,48.9,39.2,30.14,East,81,0.0,2.0,69,0.00,,SCT002,0.00,VWS V14.01,2013-02-14 12:36:00,
2013-02-14 04:41:00,49.4,38.5,30.14,East,81,2.0,2.0,66,0.00,,SCT002,0.00,VWS V14.01,2013-02-14 12:41:00,
2013-02-14 04:45:00,50.1,38.0,30.14,SW,224,0.0,2.0,63,0.00,,CLR,0.00,VWS V14.01,2013-02-14 12:45:00,
2013-02-14 04:46:00,50.1,38.4,30.14,East,81,0.0,2.0,64,0.00,,SCT002,0.00,VWS V14.01,2013-02-14 12:46:00,
2013-02-14 04:51:00,50.5,38.0,30.14,SW,224,1.0,1.0,62,0.00,,SCT002,0.00,VWS V14.01,2013-02-14 12:51:00,
2013-02-14 04:56:00,50.8,38.7,30.14,NNW,330,2.0,4.0,63,0.00,,SCT002,0.00,VWS V14.01,2013-02-14 12:56:00,
2013-02-14 05:00:00,51.6,39.0,30.14,NW,310,2.0,10.0,62,0.00,,CLR,0.00,VWS V14.01,2013-02-14 13:00:00,
2013-02-14 05:01:00,51.3,38.7,30.14,NW,316,4.0,10.0,62,0.00,,SCT002,0.00,VWS V14.01,2013-02-14 13:01:00,
2013-02-14 05:06:00,52.0,39.4,30.14,West,277,2.0,4.0,62,0.00,,CLR,0.00,VWS V14.01,2013-02-14 13:06:00,
2013-02-14 05:11:00,52.3,39.3,30.14,NW,321,4.0,7.0,61,0.00,,CLR,0.00,VWS V14.01,2013-02-14 13:11:00,
2013-02-14 05:15:00,52.3,39.3,30.14,NNW,342,2.0,7.0,61,0.00,,CLR,0.00,VWS V14.01,2013-02-14 13:15:00,
2013-02-14 05:16:00,52.3,39.3,30.14,WNW,294,1.0,7.0,61,0.00,,CLR,0.00,VWS V14.01,2013-02-14 13:16:00,
2013-02-14 05:21:00,52.3,39.3,30.14,NW,312,1.0,4.0,61,0.00,,CLR,0.00,VWS V14.01,2013-02-14 13:21:00,
2013-02-14 05:26:00,52.3,39.3,30.14,North,10,5.0,5.0,61,0.00,,CLR,0.00,VWS V14.01,2013-02-14 13:26:00,
2013-02-14 05:30:00,52.3,39.3,30.14,NNE,15,3.0,10.0,61,0.00,,CLR,0.00,VWS V14.01,2013-02-14 13:30:00,
2013-02-14 05:31:00,52.3,39.3,30.14,NNE,15,4.0,5.0,61,0.00,,CLR,0.00,VWS V14.01,2013-02-14 13:31:00,
2013-02-14 05:36:00,52.2,39.6,30.14,North,355,7.0,7.0,62,0.00,,CLR,0.00,VWS V14.01,2013-02-14 13:36:00,
2013-02-14 05:41:00,51.7,39.5,30.14,NNE,25,7.0,11.0,63,0.00,,CLR,0.00,VWS V14.01,2013-02-14 13:41:00,
2013-02-14 05:45:00,51.9,39.7,30.14,NNE,25,4.0,11.0,63,0.00,,CLR,0.00,VWS V14.01,2013-02-14 13:45:00,
2013-02-14 05:46:00,51.7,39.1,30.14,North,356,2.0,11.0,62,0.00,,CLR,0.00,VWS V14.01,2013-02-14 13:46:00,
2013-02-14 05:51:00,51.9,39.3,30.14,North,351,5.0,7.0,62,0.00,,CLR,0.00,VWS V14.01,2013-02-14 13:51:00,
2013-02-14 05:56:00,51.6,39.4,30.14,NNE,20,5.0,7.0,63,0.00,,CLR,0.00,VWS V14.01,2013-02-14 13:56:00,
2013-02-14 06:00:00,51.3,39.2,30.14,North,11,4.0,7.0,63,0.00,,CLR,0.00,VWS V14.01,2013-02-14 14:00:00,
2013-02-14 06:01:00,51.3,39.2,30.14,NNE,15,4.0,7.0,63,0.00,,CLR,0.00,VWS V14.01,2013-02-14 14:01:00,
2013-02-14 06:06:00,51.1,39.0,30.14,WNW,301,3.0,5.0,63,0.00,,CLR,0.00,VWS V14.01,2013-02-14 14:06:00,
2013-02-14 06:11:00,51.0,39.3,30.14,North,11,2.0,6.0,64,0.00,,CLR,0.00,VWS V14.01,2013-02-14 14:11:00,
2013-02-14 06:15:00,51.0,39.3,30.14,NNE,15,3.0,11.0,64,0.00,,CLR,0.00,VWS V14.01,2013-02-14 14:15:00,
2013-02-14 06:16:00,51.0,39.7,30.14,NNW,338,7.0,11.0,65,0.00,,CLR,0.00,VWS V14.01,2013-02-14 14:16:00,
2013-02-14 06:21:00,51.0,39.7,30.14,North,357,6.0,6.0,65,0.00,,CLR,0.00,VWS V14.01,2013-02-14 14:21:00,
2013-02-14 06:26:00,50.8,39.9,30.14,NNE,31,3.0,10.0,66,0.00,,CLR,0.00,VWS V14.01,2013-02-14 14:26:00,
2013-02-14 06:30:00,50.7,39.8,30.14,NE,38,3.0,10.0,66,0.00,,CLR,0.00,VWS V14.01,2013-02-14 14:30:00,
2013-02-14 06:31:00,50.7,39.8,30.14,NE,54,3.0,10.0,66,0.00,,CLR,0.00,VWS V14.01,2013-02-14 14:31:00,
2013-02-14 06:36:00,50.7,40.2,30.14,NE,54,5.0,7.0,67,0.00,,CLR,0.00,VWS V14.01,2013-02-14 14:36:00,
2013-02-14 06:41:00,50.7,40.2,30.14,NE,34,3.0,12.0,67,0.00,,CLR,0.00,VWS V14.01,2013-02-14 14:41:00,
2013-02-14 06:45:00,50.7,40.2,30.14,NE,37,2.0,12.0,67,0.00,,CLR,0.00,VWS V14.01,2013-02-14 14:45:00,
2013-02-14 06:46:00,50.7,40.2,30.14,NE,35,3.0,12.0,67,0.00,,CLR,0.00,VWS V14.01,2013-02-14 14:46:00,
2013-02-14 06:51:00,50.7,40.2,30.14,NNE,25,4.0,7.0,67,0.00,,CLR,0.00,VWS V14.01,2013-02-14 14:51:00,
2013-02-14 06:56:00,50.7,40.2,30.14,North,360,3.0,10.0,67,0.00,,CLR,0.00,VWS V14.01,2013-02-14 14:56:00,
2013-02-14 07:00:00,51.1,40.2,30.14,NE,42,4.0,13.0,66,0.00,,CLR,0.00,VWS V14.01,2013-02-14 15:00:00,
2013-02-14 07:01:00,51.0,40.1,30.14,NE,37,4.0,13.0,66,0.00,,CLR,0.00,VWS V14.01,2013-02-14 15:01:00,
2013-02-14 07:06:00,51.3,40.3,30.14,North,1,12.0,12.0,66,0.00,,CLR,0.00,VWS V14.01,2013-02-14 15:06:00,
2013-02-14 07:11:00,51.4,40.0,30.14,NNE,25,3.0,12.0,65,0.00,,CLR,0.00,VWS V14.01,2013-02-14 15:11:00,
2013-02-14 07:15:00,51.6,40.6,30.15,NNE,15,4.0,12.0,66,0.00,,CLR,0.00,VWS V14.01,2013-02-14 15:15:00,
2013-02-14 07:16:00,51.6,40.2,30.14,NE,52,1.0,12.0,65,0.00,,CLR,0.00,VWS V14.01,2013-02-14 15:16:00,
2013-02-14 07:21:00,51.9,40.1,30.15,North,6,9.0,9.0,64,0.00,,CLR,0.00,VWS V14.01,2013-02-14 15:21:00,
2013-02-14 07:26:00,52.2,40.4,30.15,NE,35,4.0,13.0,64,0.00,,CLR,0.00,VWS V14.01,2013-02-14 15:26:00,
2013-02-14 07:30:00,52.9,40.2,30.15,NE,51,6.0,16.0,62,0.00,,CLR,0.00,VWS V14.01,2013-02-14 15:30:00,
2013-02-14 07:31:00,52.8,40.6,30.15,ENE,58,16.0,16.0,63,0.00,,CLR,0.00,VWS V14.01,2013-02-14 15:31:00,
2013-02-14 07:36:00,53.2,40.5,30.15,NNE,15,2.0,22.0,62,0.00,,CLR,0.00,VWS V14.01,2013-02-14 15:36:00,
2013-02-14 07:41:00,53.3,40.6,30.15,NE,34,4.0,22.0,62,0.00,,CLR,0.00,VWS V14.01,2013-02-14 15:41:00,
2013-02-14 07:45:00,53.8,41.1,30.15,NE,50,6.0,22.0,62,0.00,,CLR,0.00,VWS V14.01,2013-02-14 15:45:00,
2013-02-14 07:46:00,53.8,41.1,30.15,North,3,3.0,22.0,62,0.00,,CLR,0.00,VWS V14.01,2013-02-14 15:46:00,
2013-02-14 07:51:00,54.1,41.4,30.15,NNE,15,4.0,10.0,62,0.00,,CLR,0.00,VWS V14.01,2013-02-14 15:51:00,
2013-02-14 07:56:00,54.2,41.5,30.15,NNW,346,0.0,10.0,62,0.00,,CLR,0.00,VWS V14.01,2013-02-14 15:56:00,
2013-02-14 08:00:00,54.1,41.4,30.16,NNE,29,6.0,10.0,62,0.00,,CLR,0.00,VWS V14.01,2013-02-14 16:00:00,
2013-02-14 08:01:00,53.9,41.2,30.15,NE,39,6.0,10.0,62,0.00,,CLR,0.00,VWS V14.01,2013-02-14 16:01:00,
2013-02-14 08:06:00,54.2,41.5,30.16,NNE,15,5.0,12.0,62,0.00,,CLR,0.00,VWS V14.01,2013-02-14 16:06:00,
2013-02-14 08:11:00,54.2,41.5,30.16,ENE,66,2.0,12.0,62,0.00,,CLR,0.00,VWS V14.01,2013-02-14 16:11:00,
2013-02-14 08:15:00,54.5,41.8,30.15,ENE,57,3.0,12.0,62,0.00,,CLR,0.00,VWS V14.01,2013-02-14 16:15:00,
2013-02-14 08:16:00,54.4,41.7,30.16,NNE,25,10.0,12.0,62,0.00,,CLR,0.00,VWS V14.01,2013-02-14 16:16:00,
2013-02-14 08:21:00,54.5,41.8,30.16,NNE,29,10.0,10.0,62,0.00,,CLR,0.00,VWS V14.01,2013-02-14 16:21:00,
2013-02-14 08:26:00,54.8,41.6,30.16,NE,45,5.0,11.0,61,0.00,,CLR,0.00,VWS V14.01,2013-02-14 16:26:00,
2013-02-14 08:30:00,55.1,42.3,30.16,North,356,7.0,11.0,62,0.00,,CLR,0.00,VWS V14.01,2013-02-14 16:30:00,
2013-02-14 08:31:00,55.1,41.9,30.16,North,360,5.0,11.0,61,0.00,,CLR,0.00,VWS V14.01,2013-02-14 16:31:00,
2013-02-14 08:36:00,55.4,41.8,30.16,NE,38,6.0,14.0,60,0.00,,CLR,0.00,VWS V14.01,2013-02-14 16:36:00,
2013-02-14 08:41:00,55.6,42.0,30.16,NE,40,5.0,14.0,60,0.00,,CLR,0.00,VWS V14.01,2013-02-14 16:41:00,
2013-02-14 08:45:00,55.9,41.8,30.16,NNE,25,0.0,17.0,59,0.00,,CLR,0.00,VWS V14.01,2013-02-14 16:45:00,
2013-02-14 08:46:00,55.7,41.6,30.16,North,358,3.0,17.0,59,0.00,,CLR,0.00,VWS V14.01,2013-02-14 16:46:00,
2013-02-14 08:51:00,56.0,42.3,30.16,North,4,3.0,5.0,60,0.00,,CLR,0.00,VWS V14.01,2013-02-14 16:51:00,
2013-02-14 08:56:00,56.3,42.2,30.16,NNE,15,5.0,10.0,59,0.00,,CLR,0.00,VWS V14.01,2013-02-14 16:56:00,
2013-02-14 09:00:00,56.6,42.0,30.16,NNE,15,9.0,10.0,58,0.00,,CLR,0.00,VWS V14.01,2013-02-14 17:00:00,
2013-02-14 09:01:00,56.5,41.5,30.16,NE,40,6.0,10.0,57,0.00,,CLR,0.00,VWS V14.01,2013-02-14 17:01:00,
2013-02-14 09:06:00,56.7,41.7,30.16,NNE,25,3.0,9.0,57,0.00,,CLR,0.00,VWS V14.01,2013-02-14 17:06:00,
2013-02-14 09:11:00,56.7,41.7,30.16,North,360,2.0,10.0,57,0.00,,CLR,0.00,VWS V14.01,2013-02-14 17:11:00,
2013-02-14 09:15:00,57.0,41.9,30.16,NE,56,4.0,13.0,57,0.00,,CLR,0.00,VWS V14.01,2013-02-14 17:15:00,
2013-02-14 09:16:00,56.9,41.4,30.16,NE,39,9.0,13.0,56,0.00,,CLR,0.00,VWS V14.01,2013-02-14 17:16:00,
2013-02-14 09:21:00,57.2,42.6,30.16,NE,55,4.0,11.0,58,0.00,,CLR,0.00,VWS V14.01,2013-02-14 17:21:00,
2013-02-14 09:26:00,57.3,41.8,30.16,NE,43,9.0,11.0,56,0.00,,CLR,0.00,VWS V14.01,2013-02-14 17:26:00,
2013-02-14 09:30:00,57.2,40.7,30.15,ENE,71,7.0,16.0,54,0.00,,CLR,0.00,VWS V14.01,2013-02-14 17:30:00,
2013-02-14 09:31:00,57.3,40.8,30.16,North,360,6.0,15.0,54,0.00,,CLR,0.00,VWS V14.01,2013-02-14 17:31:00,
2013-02-14 09:36:00,57.2,41.7,30.15,NNE,20,14.0,14.0,56,0.00,,CLR,0.00,VWS V14.01,2013-02-14 17:36:00,
2013-02-14 09:41:00,57.0,41.5,30.15,NE,47,4.0,15.0,56,0.00,,CLR,0.00,VWS V14.01,2013-02-14 17:41:00,
2013-02-14 09:45:00,58.1,42.0,30.15,NNE,25,11.0,15.0,55,0.00,,CLR,0.00,VWS V14.01,2013-02-14 17:45:00,
2013-02-14 09:46:00,58.0,41.9,30.15,NNE,32,12.0,15.0,55,0.00,,CLR,0.00,VWS V14.01,2013-02-14 17:46:00,
2013-02-14 09:51:00,58.3,42.2,30.15,NNE,15,2.0,13.0,55,0.00,,CLR,0.00,VWS V14.01,2013-02-14 17:51:00,
2013-02-14 09:56:00,59.3,42.2,30.15,NNE,30,2.0,16.0,53,0.00,,CLR,0.00,VWS V14.01,2013-02-14 17:56:00,
2013-02-14 10:00:00,59.6,43.0,30.14,NNE,29,4.0,18.0,54,0.00,,CLR,0.00,VWS V14.01,2013-02-14 18:00:00,
2013-02-14 10:01:00,59.6,43.0,30.15,NNE,25,5.0,18.0,54,0.00,,CLR,0.00,VWS V14.01,2013-02-14 18:01:00,
2013-02-14 10:06:00,59.8,42.7,30.14,NNW,339,16.0,19.0,53,0.00,,CLR,0.00,VWS V14.01,2013-02-14 18:06:00,
2013-02-14 10:11:00,60.1,42.4,30.14,North,357,12.0,19.0,52,0.00,,CLR,0.00,VWS V14.01,2013-02-14 18:11:00,
2013-02-14 10:15:00,60.5,41.8,30.15,North,359,6.0,19.0,50,0.00,,CLR,0.00,VWS V14.01,2013-02-14 18:15:00,
2013-02-14 10:16:00,60.4,43.2,30.14,NNE,15,4.0,19.0,53,0.00,,CLR,0.00,VWS V14.01,2013-02-14 18:16:00,
2013-02-14 10:21:00,60.4,43.7,30.15,NNE,15,2.0,21.0,54,0.00,,CLR,0.00,VWS V14.01,2013-02-14 18:21:00,
2013-02-14 10:26:00,61.3,43.0,30.15,NNE,20,3.0,21.0,51,0.00,,CLR,0.00,VWS V14.01,2013-02-14 18:26:00,
2013-02-14 10:30:00,61.8,42.5,30.15,ENE,64,8.0,21.0,49,0.00,,CLR,0.00,VWS V14.01,2013-02-14 18:30:00,
2013-02-14 10:31:00,62.0,44.2,30.15,NE,44,11.0,21.0,52,0.00,,CLR,0.00,VWS V14.01,2013-02-14 18:31:00,
2013-02-14 10:36:00,61.3,41.5,30.16,NNE,25,3.0,14.0,48,0.00,,CLR,0.00,VWS V14.01,2013-02-14 18:36:00,
2013-02-14 10:41:00,61.2,41.9,30.16,North,9,10.0,14.0,49,0.00,,CLR,0.00,VWS V14.01,2013-02-14 18:41:00,
2013-02-14 10:45:00,60.4,41.2,30.15,North,9,7.0,14.0,49,0.00,,CLR,0.00,VWS V14.01,2013-02-14 18:45:00,
2013-02-14 10:46:00,60.7,40.9,30.16,NE,39,6.0,14.0,48,0.00,,CLR,0.00,VWS V14.01,2013-02-14 18:46:00,
2013-02-14 10:51:00,60.9,43.7,30.15,NW,312,4.0,9.0,53,0.00,,CLR,0.00,VWS V14.01,2013-02-14 18:51:00,
2013-02-14 10:56:00,61.8,44.0,30.15,NNE,15,4.0,16.0,52,0.00,,CLR,0.00,VWS V14.01,2013-02-14 18:56:00,
2013-02-14 11:00:00,62.1,42.7,30.14,NNE,15,6.0,16.0,49,0.00,,CLR,0.00,VWS V14.01,2013-02-14 19:00:00,
2013-02-14 11:01:00,62.1,42.7,30.15,NNE,25,5.0,16.0,49,0.00,,CLR,0.00,VWS V14.01,2013-02-14 19:01:00,
2013-02-14 11:06:00,61.6,40.6,30.14,North,356,8.0,14.0,46,0.00,,CLR,0.00,VWS V14.01,2013-02-14 19:06:00,
2013-02-14 11:11:00,61.5,41.1,30.14,NE,39,4.0,15.0,47,0.00,,CLR,0.00,VWS V14.01,2013-02-14 19:11:00,
2013-02-14 11:15:00,61.5,42.2,30.15,ENE,71,4.0,15.0,49,0.00,,CLR,0.00,VWS V14.01,2013-02-14 19:15:00,
2013-02-14 11:16:00,61.3,40.9,30.14,NE,50,8.0,15.0,47,0.00,,CLR,0.00,VWS V14.01,2013-02-14 19:16:00,
2013-02-14 11:21:00,61.5,40.0,30.15,NNE,25,9.0,13.0,45,0.00,,CLR,0.00,VWS V14.01,2013-02-14 19:21:00,
2013-02-14 11:26:00,61.8,42.5,30.15,NNE,20,2.0,14.0,49,0.00,,CLR,0.00,VWS V14.01,2013-02-14 19:26:00,
2013-02-14 11:30:00,62.7,41.6,30.15,NNE,15,5.0,14.0,46,0.00,,CLR,0.00,VWS V14.01,2013-02-14 19:30:00,
2013-02-14 11:31:00,62.1,41.7,30.15,NE,46,2.0,14.0,47,0.00,,CLR,0.00,VWS V14.01,2013-02-14 19:31:00,
2013-02-14 11:36:00,63.1,43.1,30.15,North,356,3.0,13.0,48,0.00,,CLR,0.00,VWS V14.01,2013-02-14 19:36:00,
2013-02-14 11:41:00,63.9,42.7,30.15,North,353,2.0,13.0,46,0.00,,CLR,0.00,VWS V14.01,2013-02-14 19:41:00,
2013-02-14 11:45:00,65.2,42.2,30.15,NE,42,4.0,13.0,43,0.00,,CLR,0.00,VWS V14.01,2013-02-14 19:45:00,
2013-02-14 11:46:00,65.2,43.3,30.15,NNE,20,6.0,13.0,45,0.00,,CLR,0.00,VWS V14.01,2013-02-14 19:46:00,
2013-02-14 11:51:00,65.3,43.4,30.15,NNE,29,9.0,9.0,45,0.00,,CLR,0.00,VWS V14.01,2013-02-14 19:51:00,
2013-02-14 11:56:00,65.0,43.7,30.15,East,89,6.0,9.0,46,0.00,,CLR,0.00,VWS V14.01,2013-02-14 19:56:00,
2013-02-14 12:00:00,65.0,42.0,30.14,North,356,3.0,14.0,43,0.00,,CLR,0.00,VWS V14.01,2013-02-14 20:00:00,
2013-02-14 12:01:00,64.8,40.6,30.15,NNW,335,4.0,14.0,41,0.00,,CLR,0.00,VWS V14.01,2013-02-14 20:01:00,
2013-02-14 12:06:00,65.0,41.4,30.14,North,351,0.0,6.0,42,0.00,,CLR,0.00,VWS V14.01,2013-02-14 20:06:00,
2013-02-14 12:11:00,66.1,42.4,30.14,North,5,1.0,6.0,42,0.00,,CLR,0.00,VWS V14.01,2013-02-14 20:11:00,
2013-02-14 12:15:00,66.0,44.1,30.13,NE,50,3.0,12.0,45,0.00,,CLR,0.00,VWS V14.01,2013-02-14 20:15:00,
2013-02-14 12:16:00,65.8,43.3,30.14,NNE,25,6.0,12.0,44,0.00,,CLR,0.00,VWS V14.01,2013-02-14 20:16:00,
2013-02-14 12:21:00,66.0,44.1,30.13,NNW,335,2.0,11.0,45,0.00,,CLR,0.00,VWS V14.01,2013-02-14 20:21:00,
2013-02-14 12:26:00,65.6,41.3,30.13,NNW,333,1.0,11.0,41,0.00,,CLR,0.00,VWS V14.01,2013-02-14 20:26:00,
2013-02-14 12:30:00,65.8,42.1,30.12,North,355,7.0,12.0,42,0.00,,CLR,0.00,VWS V14.01,2013-02-14 20:30:00,
2013-02-14 12:31:00,66.1,42.4,30.13,NNE,20,6.0,12.0,42,0.00,,CLR,0.00,VWS V14.01,2013-02-14 20:31:00,
2013-02-14 12:36:00,65.5,44.2,30.12,NNE,31,10.0,11.0,46,0.00,,CLR,0.00,VWS V14.01,2013-02-14 20:36:00,
2013-02-14 12:41:00,65.2,41.5,30.12,NNE,25,3.0,13.0,42,0.00,,CLR,0.00,VWS V14.01,2013-02-14 20:41:00,
2013-02-14 12:45:00,65.0,41.4,30.12,NNE,33,2.0,13.0,42,0.00,,CLR,0.00,VWS V14.01,2013-02-14 20:45:00,
2013-02-14 12:46:00,65.0,43.2,30.12,NNE,31,4.0,13.0,45,0.00,,CLR,0.00,VWS V14.01,2013-02-14 20:46:00,
2013-02-14 12:51:00,65.2,43.3,30.12,NNE,15,5.0,9.0,45,0.00,,CLR,0.00,VWS V14.01,2013-02-14 20:51:00,
2013-02-14 12:56:00,65.3,41.0,30.12,NE,37,3.0,11.0,41,0.00,,CLR,0.00,VWS V14.01,2013-02-14 20:56:00,
2013-02-14 13:00:00,65.3,42.2,30.12,NNE,25,4.0,11.0,43,0.00,,CLR,0.00,VWS V14.01,2013-02-14 21:00:00,
2013-02-14 13:01:00,65.2,42.8,30.12,North,11,1.0,11.0,44,0.00,,CLR,0.00,VWS V14.01,2013-02-14 21:01:00,
2013-02-14 13:06:00,65.5,41.8,30.12,NNW,342,3.0,9.0,42,0.00,,CLR,0.00,VWS V14.01,2013-02-14 21:06:00,
2013-02-14 13:11:00,66.1,41.1,30.12,North,5,1.0,10.0,40,0.00,,CLR,0.00,VWS V14.01,2013-02-14 21:11:00,
2013-02-14 13:15:00,66.8,42.4,30.12,NNE,30,1.0,10.0,41,0.00,,CLR,0.00,VWS V14.01,2013-02-14 21:15:00,
2013-02-14 13:16:00,66.8,42.4,30.12,North,6,3.0,10.0,41,0.00,,CLR,0.00,VWS V14.01,2013-02-14 21:16:00,
2013-02-14 13:21:00,66.9,43.1,30.11,NNE,25,2.0,8.0,42,0.00,,CLR,0.00,VWS V14.01,2013-02-14 21:21:00,
2013-02-14 13:26:00,66.9,42.5,30.11,NE,37,9.0,9.0,41,0.00,,CLR,0.00,VWS V14.01,2013-02-14 21:26:00,
2013-02-14 13:30:00,66.3,43.2,30.10,NNE,25,4.0,15.0,43,0.00,,CLR,0.00,VWS V14.01,2013-02-14 21:30:00,
2013-02-14 13:31:00,66.3,42.5,30.11,NNE,25,11.0,15.0,42,0.00,,CLR,0.00,VWS V14.01,2013-02-14 21:31:00,
2013-02-14 13:36:00,66.6,45.2,30.11,North,359,5.0,11.0,46,0.00,,CLR,0.00,VWS V14.01,2013-02-14 21:36:00,
2013-02-14 13:41:00,66.9,42.5,30.11,NNE,25,3.0,11.0,41,0.00,,CLR,0.00,VWS V14.01,2013-02-14 21:41:00,
2013-02-14 13:45:00,66.9,44.9,30.10,NNE,25,1.0,11.0,45,0.00,,CLR,0.00,VWS V14.01,2013-02-14 21:45:00,
2013-02-14 13:46:00,66.6,42.8,30.11,NE,52,2.0,11.0,42,0.00,,CLR,0.00,VWS V14.01,2013-02-14 21:46:00,
2013-02-14 13:51:00,66.9,44.9,30.10,NE,37,4.0,7.0,45,0.00,,CLR,0.00,VWS V14.01,2013-02-14 21:51:00,
2013-02-14 13:56:00,66.4,42.6,30.10,NNE,25,0.0,9.0,42,0.00,,CLR,0.00,VWS V14.01,2013-02-14 21:56:00,
2013-02-14 14:00:00,66.1,41.7,30.10,NNE,20,2.0,9.0,41,0.00,,CLR,0.00,VWS V14.01,2013-02-14 22:00:00,
2013-02-14 14:01:00,66.3,42.5,30.10,NE,48,2.0,9.0,42,0.00,,CLR,0.00,VWS V14.01,2013-02-14 22:01:00,
2013-02-14 14:06:00,66.4,42.6,30.10,NE,47,2.0,7.0,42,0.00,,CLR,0.00,VWS V14.01,2013-02-14 22:06:00,
2013-02-14 14:11:00,67.3,44.7,30.10,NE,35,3.0,9.0,44,0.00,,CLR,0.00,VWS V14.01,2013-02-14 22:11:00,
2013-02-14 14:15:00,67.3,44.7,30.09,NW,315,1.0,9.0,44,0.00,,CLR,0.00,VWS V14.01,2013-02-14 22:15:00,
2013-02-14 14:16:00,67.1,44.5,30.10,North,11,5.0,9.0,44,0.00,,CLR,0.00,VWS V14.01,2013-02-14 22:16:00,
2013-02-14 14:21:00,67.6,43.1,30.09,North,5,3.0,6.0,41,0.00,,CLR,0.00,VWS V14.01,2013-02-14 22:21:00,
2013-02-14 14:26:00,67.1,42.0,30.09,NE,36,1.0,10.0,40,0.00,,CLR,0.00,VWS V14.01,2013-02-14 22:26:00,
2013-02-14 14:30:00,66.8,43.0,30.09,NE,44,6.0,10.0,42,0.00,,CLR,0.00,VWS V14.01,2013-02-14 22:30:00,
2013-02-14 14:31:00,66.9,43.1,30.09,North,6,6.0,10.0,42,0.00,,CLR,0.00,VWS V14.01,2013-02-14 22:31:00,
2013-02-14 14:36:00,66.8,43.0,30.09,NNE,15,2.0,6.0,42,0.00,,CLR,0.00,VWS V14.01,2013-02-14 22:36:00,
2013-02-14 14:41:00,67.1,43.3,30.09,ENE,69,3.0,6.0,42,0.00,,CLR,0.00,VWS V14.01,2013-02-14 22:41:00,
2013-02-14 14:45:00,67.1,42.0,30.09,NE,42,4.0,9.0,40,0.00,,CLR,0.00,VWS V14.01,2013-02-14 22:45:00,
2013-02-14 14:46:00,67.3,42.2,30.09,North,6,6.0,7.0,40,0.00,,CLR,0.00,VWS V14.01,2013-02-14 22:46:00,
2013-02-14 14:51:00,67.1,42.6,30.08,NE,39,1.0,6.0,41,0.00,,CLR,0.00,VWS V14.01,2013-02-14 22:51:00,
2013-02-14 14:56:00,67.1,41.3,30.08,NNE,25,5.0,9.0,39,0.00,,CLR,0.00,VWS V14.01,2013-02-14 22:56:00,
2013-02-14 15:00:00,66.9,44.9,30.09,NNE,15,6.0,9.0,45,0.00,,CLR,0.00,VWS V14.01,2013-02-14 23:00:00,
2013-02-14 15:01:00,67.1,42.0,30.08,NE,54,4.0,9.0,40,0.00,,CLR,0.00,VWS V14.01,2013-02-14 23:01:00,
2013-02-14 15:06:00,66.9,41.8,30.08,North,8,6.0,7.0,40,0.00,,CLR,0.00,VWS V14.01,2013-02-14 23:06:00,
2013-02-14 15:11:00,66.9,42.5,30.08,NNE,15,3.0,7.0,41,0.00,,CLR,0.00,VWS V14.01,2013-02-14 23:11:00,
2013-02-14 15:15:00,66.9,43.1,30.09,NE,44,4.0,7.0,42,0.00,,CLR,0.00,VWS V14.01,2013-02-14 23:15:00,
2013-02-14 15:16:00,67.1,42.6,30.08,East,87,3.0,7.0,41,0.00,,CLR,0.00,VWS V14.01,2013-02-14 23:16:00,
2013-02-14 15:21:00,66.9,41.8,30.09,NE,47,2.0,9.0,40,0.00,,CLR,0.00,VWS V14.01,2013-02-14 23:21:00,
2013-02-14 15:26:00,66.9,41.8,30.09,NNE,25,1.0,9.0,40,0.00,,CLR,0.00,VWS V14.01,2013-02-14 23:26:00,
2013-02-14 15:30:00,66.3,42.5,30.09,NE,43,4.0,10.0,42,0.00,,CLR,0.00,VWS V14.01,2013-02-14 23:30:00,
2013-02-14 15:31:00,66.3,41.9,30.09,NNE,25,6.0,10.0,41,0.00,,CLR,0.00,VWS V14.01,2013-02-14 23:31:00,
2013-02-14 15:36:00,66.1,43.0,30.09,NNE,15,6.0,10.0,43,0.00,,CLR,0.00,VWS V14.01,2013-02-14 23:36:00,
2013-02-14 15:41:00,66.0,42.9,30.09,NNE,31,3.0,10.0,43,0.00,,CLR,0.00,VWS V14.01,2013-02-14 23:41:00,
2013-02-14 15:45:00,65.5,41.8,30.09,NE,46,2.0,10.0,42,0.00,,CLR,0.00,VWS V14.01,2013-02-14 23:45:00,
2013-02-14 15:46:00,65.6,41.9,30.09,NE,48,3.0,10.0,42,0.00,,CLR,0.00,VWS V14.01,2013-02-14 23:46:00,
2013-02-14 15:51:00,65.0,42.6,30.08,NNE,15,3.0,8.0,44,0.00,,CLR,0.00,VWS V14.01,2013-02-14 23:51:00,
2013-02-14 15:56:00,65.0,42.6,30.08,NNE,20,3.0,8.0,44,0.00,,CLR,0.00,VWS V14.01,2013-02-14 23:56:00,
2013-02-14 16:00:00,64.3,42.5,30.09,NNE,15,3.0,8.0,45,0.00,,CLR,0.00,VWS V14.01,2013-02-15 00:00:00,
2013-02-14 16:01:00,64.5,42.1,30.08,NNE,15,7.0,8.0,44,0.00,,CLR,0.00,VWS V14.01,2013-02-15 00:01:00,
2013-02-14 16:06:00,64.2,43.0,30.09,NE,45,3.0,10.0,46,0.00,,CLR,0.00,VWS V14.01,2013-02-15 00:06:00,
2013-02-14 16:11:00,63.7,41.4,30.09,NE,50,10.0,10.0,44,0.00,,CLR,0.00,VWS V14.01,2013-02-15 00:11:00,
2013-02-14 16:15:00,63.2,42.1,30.09,NNE,25,4.0,12.0,46,0.00,,CLR,0.00,VWS V14.01,2013-02-15 00:15:00,
2013-02-14 16:16:00,63.2,42.1,30.09,NNE,25,2.0,12.0,46,0.00,,CLR,0.00,VWS V14.01,2013-02-15 00:16:00,
2013-02-14 16:21:00,62.7,41.6,30.09,North,6,6.0,10.0,46,0.00,,CLR,0.00,VWS V14.01,2013-02-15 00:21:00,
2013-02-14 16:26:00,62.0,42.6,30.09,NE,50,3.0,10.0,49,0.00,,CLR,0.00,VWS V14.01,2013-02-15 00:26:00,
2013-02-14 16:30:00,61.6,42.3,30.09,NE,52,7.0,10.0,49,0.00,,CLR,0.00,VWS V14.01,2013-02-15 00:30:00,
2013-02-14 16:31:00,61.6,41.7,30.09,North,1,6.0,10.0,48,0.00,,CLR,0.00,VWS V14.01,2013-02-15 00:31:00,
2013-02-14 16:36:00,61.3,41.5,30.09,NNE,20,5.0,9.0,48,0.00,,CLR,0.00,VWS V14.01,2013-02-15 00:36:00,
2013-02-14 16:41:00,61.0,41.7,30.09,NNE,20,3.0,9.0,49,0.00,,CLR,0.00,VWS V14.01,2013-02-15 00:41:00,
2013-02-14 16:45:00,60.7,41.5,30.09,NNE,15,4.0,12.0,49,0.00,,CLR,0.00,VWS V14.01,2013-02-15 00:45:00,
2013-02-14 16:46:00,60.9,41.6,30.09,NNE,20,4.0,12.0,49,0.00,,CLR,0.00,VWS V14.01,2013-02-15 00:46:00,
2013-02-14 16:51:00,60.7,40.9,30.09,North,9,4.0,10.0,48,0.00,,CLR,0.00,VWS V14.01,2013-02-15 00:51:00,
2013-02-14 16:56:00,60.7,41.5,30.09,NE,41,3.0,10.0,49,0.00,,CLR,0.00,VWS V14.01,2013-02-15 00:56:00,
2013-02-14 17:00:00,60.5,41.8,30.09,NNE,20,4.0,10.0,50,0.00,,CLR,0.00,VWS V14.01,2013-02-15 01:00:00,
2013-02-14 17:01:00,60.5,41.8,30.09,NE,36,6.0,10.0,50,0.00,,CLR,0.00,VWS V14.01,2013-02-15 01:01:00,
2013-02-14 17:06:00,60.4,41.7,30.09,NNE,15,4.0,9.0,50,0.00,,CLR,0.00,VWS V14.01,2013-02-15 01:06:00,
2013-02-14 17:11:00,60.1,41.4,30.09,NNE,15,3.0,11.0,50,0.00,,CLR,0.00,VWS V14.01,2013-02-15 01:11:00,
2013-02-14 17:15:00,59.6,41.5,30.09,NNE,15,9.0,14.0,51,0.00,,CLR,0.00,VWS V14.01,2013-02-15 01:15:00,
2013-02-14 17:16:00,59.8,41.1,30.09,NE,39,12.0,14.0,50,0.00,,CLR,0.00,VWS V14.01,2013-02-15 01:16:00,
2013-02-14 17:21:00,59.5,41.4,30.09,NNE,15,2.0,10.0,51,0.00,,CLR,0.00,VWS V14.01,2013-02-15 01:21:00,
2013-02-14 17:26:00,59.3,41.2,30.09,NE,52,4.0,11.0,51,0.00,,CLR,0.00,VWS V14.01,2013-02-15 01:26:00,
2013-02-14 17:30:00,59.0,40.9,30.09,North,8,15.0,15.0,51,0.00,,CLR,0.00,VWS V14.01,2013-02-15 01:30:00,
2013-02-14 17:31:00,59.0,40.9,30.09,NNE,15,3.0,11.0,51,0.00,,CLR,0.00,VWS V14.01,2013-02-15 01:31:00,
2013-02-14 17:36:00,58.9,40.8,30.09,North,5,14.0,15.0,51,0.00,,CLR,0.00,VWS V14.01,2013-02-15 01:36:00,
2013-02-14 17:41:00,58.7,40.6,30.09,NNE,31,9.0,15.0,51,0.00,,CLR,0.00,VWS V14.01,2013-02-15 01:41:00,
2013-02-14 17:45:00,58.4,40.4,30.09,NNE,15,0.0,15.0,51,0.00,,CLR,0.00,VWS V14.01,2013-02-15 01:45:00,
2013-02-14 17:46:00,58.6,40.5,30.09,NNE,29,1.0,15.0,51,0.00,,CLR,0.00,VWS V14.01,2013-02-15 01:46:00,
2013-02-14 17:51:00,58.4,39.8,30.09,North,358,4.0,14.0,50,0.00,,CLR,0.00,VWS V14.01,2013-02-15 01:51:00,
2013-02-14 17:56:00,58.7,39.6,30.09,North,8,7.0,15.0,49,0.00,,CLR,0.00,VWS V14.01,2013-02-15 01:56:00,
2013-02-14 18:00:00,58.9,39.3,30.09,North,3,9.0,18.0,48,0.00,,CLR,0.00,VWS V14.01,2013-02-15 02:00:00,
2013-02-14 18:01:00,58.9,39.3,30.09,NNE,25,7.0,18.0,48,0.00,,CLR,0.00,VWS V14.01,2013-02-15 02:01:00,
2013-02-14 18:06:00,58.9,39.3,30.09,ENE,58,5.0,14.0,48,0.00,,CLR,0.00,VWS V14.01,2013-02-15 02:06:00,
2013-02-14 18:11:00,58.7,39.1,30.09,NNE,15,2.0,14.0,48,0.00,,CLR,0.00,VWS V14.01,2013-02-15 02:11:00,
2013-02-14 18:15:00,58.4,38.3,30.10,North,7,2.0,14.0,47,0.00,,CLR,0.00,VWS V14.01,2013-02-15 02:15:00,
2013-02-14 18:16:00,58.4,38.8,30.09,NNE,15,7.0,14.0,48,0.00,,CLR,0.00,VWS V14.01,2013-02-15 02:16:00,
2013-02-14 18:21:00,58.4,38.3,30.10,North,6,4.0,10.0,47,0.00,,CLR,0.00,VWS V14.01,2013-02-15 02:21:00,
2013-02-14 18:26:00,58.4,38.8,30.10,NNE,30,9.0,11.0,48,0.00,,CLR,0.00,VWS V14.01,2013-02-15 02:26:00,
2013-02-14 18:30:00,58.4,38.3,30.11,NNE,31,6.0,11.0,47,0.00,,CLR,0.00,VWS V14.01,2013-02-15 02:30:00,
2013-02-14 18:31:00,58.4,38.3,30.10,NNE,20,10.0,11.0,47,0.00,,CLR,0.00,VWS V14.01,2013-02-15 02:31:00,
2013-02-14 18:36:00,58.4,38.8,30.11,North,349,4.0,9.0,48,0.00,,CLR,0.00,VWS V14.01,2013-02-15 02:36:00,
2013-02-14 18:41:00,58.3,38.2,30.11,North,359,5.0,10.0,47,0.00,,CLR,0.00,VWS V14.01,2013-02-15 02:41:00,
2013-02-14 18:45:00,58.1,38.5,30.11,NE,44,6.0,10.0,48,0.00,,CLR,0.00,VWS V14.01,2013-02-15 02:45:00,
2013-02-14 18:46:00,58.1,39.1,30.11,NNW,343,3.0,10.0,49,0.00,,CLR,0.00,VWS V14.01,2013-02-15 02:46:00,
2013-02-14 18:51:00,57.8,38.8,30.11,NNE,20,5.0,7.0,49,0.00,,CLR,0.00,VWS V14.01,2013-02-15 02:51:00,
2013-02-14 18:56:00,57.5,38.5,30.11,NE,34,4.0,11.0,49,0.00,,CLR,0.00,VWS V14.01,2013-02-15 02:56:00,
2013-02-14 19:00:00,57.6,39.1,30.11,NNE,15,11.0,12.0,50,0.00,,CLR,0.00,VWS V14.01,2013-02-15 03:00:00,
2013-02-14 19:01:00,57.6,39.1,30.11,NE,40,9.0,11.0,50,0.00,,CLR,0.00,VWS V14.01,2013-02-15 03:01:00,
2013-02-14 19:06:00,58.0,39.0,30.11,NNE,31,7.0,12.0,49,0.00,,CLR,0.00,VWS V14.01,2013-02-15 03:06:00,
2013-02-14 19:11:00,58.1,39.6,30.11,NE,46,6.0,15.0,50,0.00,,CLR,0.00,VWS V14.01,2013-02-15 03:11:00,
2013-02-14 19:15:00,57.8,39.3,30.11,North,6,5.0,15.0,50,0.00,,CLR,0.00,VWS V14.01,2013-02-15 03:15:00,
2013-02-14 19:16:00,58.0,39.5,30.11,NNE,15,4.0,15.0,50,0.00,,CLR,0.00,VWS V14.01,2013-02-15 03:16:00,
2013-02-14 19:21:00,57.8,39.3,30.11,North,4,6.0,6.0,50,0.00,,CLR,0.00,VWS V14.01,2013-02-15 03:21:00,
2013-02-14 19:26:00,57.8,39.3,30.11,NNW,344,3.0,7.0,50,0.00,,CLR,0.00,VWS V14.01,2013-02-15 03:26:00,
2013-02-14 19:30:00,57.6,39.6,30.12,North,1,4.0,12.0,51,0.00,,CLR,0.00,VWS V14.01,2013-02-15 03:30:00,
2013-02-14 19:31:00,57.6,39.6,30.11,North,360,4.0,12.0,51,0.00,,CLR,0.00,VWS V14.01,2013-02-15 03:31:00,
2013-02-14 19:36:00,57.6,39.6,30.12,North,356,3.0,8.0,51,0.00,,CLR,0.00,VWS V14.01,2013-02-15 03:36:00,
2013-02-14 19:41:00,57.5,39.5,30.12,North,6,10.0,10.0,51,0.00,,CLR,0.00,VWS V14.01,2013-02-15 03:41:00,
2013-02-14 19:45:00,57.3,39.8,30.12,North,351,6.0,10.0,52,0.00,,CLR,0.00,VWS V14.01,2013-02-15 03:45:00,
2013-02-14 19:46:00,57.5,40.0,30.12,North,6,3.0,10.0,52,0.00,,CLR,0.00,VWS V14.01,2013-02-15 03:46:00,
2013-02-14 19:51:00,57.2,40.2,30.12,NNE,29,4.0,9.0,53,0.00,,CLR,0.00,VWS V14.01,2013-02-15 03:51:00,
2013-02-14 19:56:00,57.2,40.2,30.12,NNE,33,8.0,11.0,53,0.00,,CLR,0.00,VWS V14.01,2013-02-15 03:56:00,
2013-02-14 20:00:00,57.0,40.1,30.12,NNE,20,6.0,11.0,53,0.00,,CLR,0.00,VWS V14.01,2013-02-15 04:00:00,
2013-02-14 20:01:00,57.2,40.2,30.12,NE,37,7.0,11.0,53,0.00,,CLR,0.00,VWS V14.01,2013-02-15 04:01:00,
2013-02-14 20:06:00,57.0,40.1,30.12,North,354,6.0,12.0,53,0.00,,CLR,0.00,VWS V14.01,2013-02-15 04:06:00,
2013-02-14 20:11:00,57.0,40.5,30.12,NNE,15,4.0,12.0,54,0.00,,CLR,0.00,VWS V14.01,2013-02-15 04:11:00,
2013-02-14 20:15:00,56.9,40.0,30.12,NE,48,2.0,12.0,53,0.00,,CLR,0.00,VWS V14.01,2013-02-15 04:15:00,
2013-02-14 20:16:00,56.9,40.0,30.12,NE,37,4.0,12.0,53,0.00,,CLR,0.00,VWS V14.01,2013-02-15 04:16:00,
2013-02-14 20:21:00,56.9,40.0,30.12,NNW,345,2.0,11.0,53,0.00,,CLR,0.00,VWS V14.01,2013-02-15 04:21:00,
2013-02-14 20:26:00,56.9,40.0,30.12,NNW,345,8.0,11.0,53,0.00,,CLR,0.00,VWS V14.01,2013-02-15 04:26:00,
2013-02-14 20:30:00,57.0,40.1,30.12,North,11,6.0,11.0,53,0.00,,CLR,0.00,VWS V14.01,2013-02-15 04:30:00,
2013-02-14 20:31:00,57.0,40.1,30.12,NNW,331,5.0,11.0,53,0.00,,CLR,0.00,VWS V14.01,2013-02-15 04:31:00,
2013-02-14 20:36:00,57.0,40.1,30.13,North,356,4.0,7.0,53,0.00,,CLR,0.00,VWS V14.01,2013-02-15 04:36:00,
2013-02-14 20:41:00,57.0,40.5,30.13,NNE,20,7.0,9.0,54,0.00,,CLR,0.00,VWS V14.01,2013-02-15 04:41:00,
2013-02-14 20:45:00,56.9,40.0,30.13,NNE,30,4.0,9.0,53,0.00,,CLR,0.00,VWS V14.01,2013-02-15 04:45:00,
2013-02-14 20:46:00,57.0,40.1,30.13,NNW,333,0.0,9.0,53,0.00,,CLR,0.00,VWS V14.01,2013-02-15 04:46:00,
2013-02-14 20:51:00,56.9,40.0,30.13,North,8,1.0,6.0,53,0.00,,CLR,0.00,VWS V14.01,2013-02-15 04:51:00,
2013-02-14 20:56:00,56.7,39.8,30.13,NNW,344,0.0,10.0,53,0.00,,CLR,0.00,VWS V14.01,2013-02-15 04:56:00,
2013-02-14 21:00:00,56.7,39.8,30.13,NE,39,6.0,10.0,53,0.00,,CLR,0.00,VWS V14.01,2013-02-15 05:00:00,
2013-02-14 21:05:00,56.6,39.7,30.13,NNE,15,4.0,7.0,53,0.00,,CLR,0.00,VWS V14.01,2013-02-15 05:05:00,
2013-02-14 21:10:00,56.6,39.2,30.13,NNE,25,6.0,10.0,52,0.00,,CLR,0.00,VWS V14.01,2013-02-15 05:10:00,
2013-02-14 21:15:00,56.9,39.5,30.13,North,355,2.0,10.0,52,0.00,,CLR,0.00,VWS V14.01,2013-02-15 05:15:00,
2013-02-14 21:20:00,57.0,39.6,30.13,NE,36,6.0,6.0,52,0.00,,CLR,0.00,VWS V14.01,2013-02-15 05:20:00,
2013-02-14 21:25:00,56.9,39.5,30.13,NNE,29,1.0,6.0,52,0.00,,CLR,0.00,VWS V14.01,2013-02-15 05:25:00,
2013-02-14 21:30:00,56.7,39.8,30.13,NNE,25,1.0,10.0,53,0.00,,CLR,0.00,VWS V14.01,2013-02-15 05:30:00,
2013-02-14 21:35:00,56.7,39.8,30.13,North,1,4.0,6.0,53,0.00,,CLR,0.00,VWS V14.01,2013-02-15 05:35:00,
2013-02-14 21:40:00,56.9,39.5,30.13,North,10,5.0,9.0,52,0.00,,CLR,0.00,VWS V14.01,2013-02-15 05:40:00,
2013-02-14 21:45:00,56.9,39.5,30.13,NNW,339,3.0,10.0,52,0.00,,CLR,0.00,VWS V14.01,2013-02-15 05:45:00,
2013-02-14 21:50:00,57.0,39.6,30.13,North,10,3.0,10.0,52,0.00,,CLR,0.00,VWS V14.01,2013-02-15 05:50:00,
2013-02-14 21:55:00,57.0,39.6,30.13,ENE,63,5.0,10.0,52,0.00,,CLR,0.00,VWS V14.01,2013-02-15 05:55:00,
2013-02-14 22:00:00,57.0,39.1,30.13,NNW,341,1.0,10.0,51,0.00,,CLR,0.00,VWS V14.01,2013-02-15 06:00:00,
2013-02-14 22:05:00,57.0,39.6,30.14,North,353,5.0,5.0,52,0.00,,CLR,0.00,VWS V14.01,2013-02-15 06:05:00,
2013-02-14 22:10:00,56.9,39.5,30.14,North,356,0.0,9.0,52,0.00,,CLR,0.00,VWS V14.01,2013-02-15 06:10:00,
2013-02-14 22:15:00,57.0,39.6,30.14,NNW,328,3.0,9.0,52,0.00,,CLR,0.00,VWS V14.01,2013-02-15 06:15:00,
2013-02-14 22:20:00,57.2,39.2,30.14,NW,317,3.0,5.0,51,0.00,,CLR,0.00,VWS V14.01,2013-02-15 06:20:00,
2013-02-14 22:25:00,57.5,39.5,30.14,NNE,33,3.0,6.0,51,0.00,,CLR,0.00,VWS V14.01,2013-02-15 06:25:00,
2013-02-14 22:30:00,57.8,39.8,30.14,NW,324,2.0,6.0,51,0.00,,CLR,0.00,VWS V14.01,2013-02-15 06:30:00,
2013-02-14 22:35:00,58.0,39.5,30.14,WNW,300,3.0,6.0,50,0.00,,CLR,0.00,VWS V14.01,2013-02-15 06:35:00,
2013-02-14 22:40:00,58.0,39.5,30.14,North,351,0.0,6.0,50,0.00,,CLR,0.00,VWS V14.01,2013-02-15 06:40:00,
2013-02-14 22:45:00,58.1,39.1,30.14,NNW,347,2.0,6.0,49,0.00,,CLR,0.00,VWS V14.01,2013-02-15 06:45:00,
2013-02-14 22:50:00,58.3,39.2,30.14,North,349,4.0,7.0,49,0.00,,CLR,0.00,VWS V14.01,2013-02-15 06:50:00,
2013-02-14 22:55:00,58.7,39.1,30.14,North,8,2.0,7.0,48,0.00,,CLR,0.00,VWS V14.01,2013-02-15 06:55:00,
2013-02-14 23:00:00,58.9,38.7,30.14,North,349,2.0,7.0,47,0.00,,CLR,0.00,VWS V14.01,2013-02-15 07:00:00,
2013-02-14 23:05:00,58.9,39.3,30.14,North,350,0.0,5.0,48,0.00,,CLR,0.00,VWS V14.01,2013-02-15 07:05:00,
2013-02-14 23:10:00,58.6,39.0,30.14,North,4,0.0,5.0,48,0.00,,CLR,0.00,VWS V14.01,2013-02-15 07:10:00,
2013-02-14 23:15:00,58.3,38.7,30.14,North,4,0.0,5.0,48,0.00,,CLR,0.00,VWS V14.01,2013-02-15 07:15:00,
2013-02-14 23:20:00,58.1,38.5,30.14,North,4,2.0,2.0,48,0.00,,CLR,0.00,VWS V14.01,2013-02-15 07:20:00,
2013-02-14 23:25:00,58.0,39.0,30.14,North,4,2.0,3.0,49,0.00,,CLR,0.00,VWS V14.01,2013-02-15 07:25:00,
2013-02-14 23:30:00,58.1,38.5,30.14,North,4,2.0,3.0,48,0.00,,CLR,0.00,VWS V14.01,2013-02-15 07:30:00,
2013-02-14 23:35:00,58.3,38.7,30.14,North,4,2.0,4.0,48,0.00,,CLR,0.00,VWS V14.01,2013-02-15 07:35:00,
2013-02-14 23:40:00,58.4,38.3,30.14,North,4,1.0,4.0,47,0.00,,CLR,0.00,VWS V14.01,2013-02-15 07:40:00,
2013-02-14 23:45:00,58.6,38.5,30.14,North,4,1.0,4.0,47,0.00,,CLR,0.00,VWS V14.01,2013-02-15 07:45:00,
2013-02-14 23:50:00,58.7,38.5,30.14,North,4,0.0,2.0,47,0.00,,CLR,0.00,VWS V14.01,2013-02-15 07:50:00,
2013-02-14 23:55:00,58.9,38.7,30.14,North,4,0.0,2.0,47,0.00,,CLR,0.00,VWS V14.01,2013-02-15 07:55:00,